This demonstration page uses our WeatherBlox Daily Observations layout. Learn more.

Left ArrowRight Arrow

41.12389, -100.76542

Hourly Observations for September 29, 2016

Temp ( °F °C ) Dew Point ( °F °C ) Humidity (%) Winds ( mph kmh ) Pressure ( in mb ) Visibility ( mi km ) Precip ( " mm )
12:53 am 00:53 Clear 43 6.1 37 2.8 80 80 E 5 7 30.35 1028 10 16 0.00 0.00
1:53 am 01:53 Clear 42 5.6 38 3.3 85 85 E 5 7 30.35 1028 10 16 0.00 0.00
2:53 am 02:53 Clear 40 4.4 37 2.8 89 89 E 3 6 30.36 1028 10 16 0.00 0.00
3:53 am 03:53 Clear 38 3.3 35 1.7 89 89 ENE 6 9 30.37 1029 10 16 0.00 0.00
4:53 am 04:53 Clear 38 3.3 36 2.2 93 93 Calm 30.38 1029 10 16 0.00 0.00
5:53 am 05:53 Clear 36 2.2 34 1.1 93 93 E 5 7 30.40 1029 10 16 0.00 0.00
6:53 am 06:53 Clear 36 2.2 35 1.7 97 97 Calm 30.42 1030 10 16 0.00 0.00
7:53 am 07:53 Sunny 34 1.1 32 0 92 92 E 6 9 30.45 1031 10 16 0.00 0.00
8:53 am 08:53 Sunny 43 6.1 41 5 93 93 ESE 5 7 30.45 1031 10 16 0.00 0.00
9:53 am 09:53 Sunny 51 10.6 44 6.7 77 77 ESE 5 7 30.45 1031 10 16 0.00 0.00
10:53 am 10:53 Sunny 59 15 45 7.2 60 60 SE 7 11 30.43 1031 10 16 0.00 0.00
11:53 am 11:53 Sunny 64 17.8 42 5.6 45 45 S 8 13 30.40 1030 10 16 0.00 0.00
12:53 pm 12:53 Sunny 69 20.6 43 6.1 39 39 SSE 6 9 30.38 1029 10 16 0.00 0.00
1:53 pm 13:53 Sunny 71 21.7 41 5 34 34 SE 6 9 30.35 1028 10 16 0.00 0.00
2:53 pm 14:53 Sunny 74 23.3 41 5 31 31 SE 8 13 30.32 1027 10 16 0.00 0.00
3:53 pm 15:53 Sunny 74 23.3 40 4.4 29 29 S 10 17 30.30 1026 10 16 0.00 0.00
4:53 pm 16:53 Sunny 74 23.3 41 5 31 31 ESE 10 17 30.28 1025 10 16 0.00 0.00
5:53 pm 17:53 Sunny 73 22.8 41 5 32 32 SE 8 13 30.28 1025 10 16 0.00 0.00
6:53 pm 18:53 Sunny 67 19.4 40 4.4 37 37 SE 9 15 30.29 1026 10 16 0.00 0.00
7:53 pm 19:53 Clear 59 15 41 5 51 51 SE 6 9 30.31 1026 10 16 0.00 0.00
8:53 pm 20:53 Clear 52 11.1 41 5 66 66 ESE 7 11 30.32 1027 10 16 0.00 0.00
9:53 pm 21:53 Clear 50 10 40 4.4 68 68 E 7 11 30.31 1026 10 16 0.00 0.00
10:53 pm 22:53 Clear 48 8.9 40 4.4 74 74 ESE 7 11 30.30 1026 10 16 0.00 0.00
11:53 pm 23:53 Clear 46 8 39 4 76 76 ESE 6 9 30.30 1026 10 16 0.00 0.00

Powered by AerisWeather